Regional Weather Roundup
Issued by NWS

Home | Current Version | Previous Version | Graphics & Text | Print | Product List | Glossary On
Versions: 1 2 3 4 5 6 7 8 9 10 11 12 13 14 15 16 17 18 19 20 21 22 23 24 25 26 27 28 29 30 31 32 33 34 35 36 37 38 39 40 41 42 43 44 45 46 47 48 49 50
000
ASUS43 KMKX 101420
RWRWI

WISCONSIN REGIONAL WEATHER ROUNDUP
NATIONAL WEATHER SERVICE MILWAUKEE/SULLIVAN WI
800 AM CST WED FEB 10 2016

NOTE: "FAIR" INDICATES FEW OR NO CLOUDS BELOW 12,000 FEET WITH NO
SIGNIFICANT WEATHER AND/OR OBSTRUCTIONS TO VISIBILITY.

WIZ001-002-006>008-014>016-023>028-101500-
NORTHWEST WISCONSIN

CITY           SKY/WX    TMP DP  RH WIND       PRES   REMARKS
SUPERIOR ARPT  CLOUDY    -8 -13  78 NW5       30.15S WCI -20
ASHLAND        CLOUDY     3  -2  79 N12       30.10S WCI -13
HAYWARD        CLOUDY     2  -4  76 VRB3      30.05S
SIREN          CLOUDY   -13 -19  74 CALM      30.10S
CUMBERLAND     CLOUDY    -8 -13  77 N5        30.05F WCI -19
RICE LAKE      CLOUDY    -3  -8  80 W5        30.08F WCI -14
CHETEK         CLOUDY    -3  -8  80 MISG      30.07F
LADYSMITH      CLOUDY     4  -3  75 NW5       30.04F WCI  -6
EAU CLAIRE     PTCLDY    -3  -9  75 NE3       30.08F
MENOMONIE      CLOUDY    -1  -7  76 NW8       30.09F WCI -16
NEW RICHMOND   PTCLDY    -3  -8  79 N5        30.10R WCI -13
OSCEOLA        CLOUDY    -1  -6  79 CALM      30.14S
$$

WIZ003>005-009-010-017-018-101500-
NORTH CENTRAL WISCONSIN

CITY           SKY/WX    TMP DP  RH WIND       PRES   REMARKS
MANITOWISH WTR CLOUDY     2  -3  78 N3        29.96R
ARBOR VITAE    CLOUDY     4  -2  75 N9        29.95R WCI -10
WOODRUFF       CLOUDY     4  -2  75 N9        29.95R WCI -10
RHINELANDER    CLOUDY     4  -4  69 N7        29.95R WCI  -8
EAGLE RIVER    CLOUDY     2  -5  70 N9        29.94R WCI -12
LAND O LAKES   LGT SNOW   2  -3  79 NW8       29.94S WCI -11
PHILLIPS       CLOUDY     0  -5  80 NW6       29.98S WCI -11
TOMAHAWK       CLOUDY     2  -3  77 NW6       29.98R WCI  -9
MEDFORD        PTCLDY    -4  -8  84 NW7       29.98S WCI -18
MERRILL        CLOUDY     4  -2  74 NW5       29.99S WCI  -5
$$

WIZ029-030-035-036-043>047-101500-
CENTRAL WISCONSIN

CITY           SKY/WX    TMP DP  RH WIND       PRES   REMARKS
WAUSAU         CLOUDY     7  -2  66 NW9       29.98R WCI  -7
MOSINEE        CLOUDY     3   0  85 NW10      30.00R WCI -12
MARSHFIELD     PTCLDY    -2  -9  72 NW10      29.99S WCI -19
STEVENS POINT  CLOUDY     5  -2  73 NW8       30.01R HAZE    WCI  -8
WAUPACA        CLOUDY    11  -3  53 NW12      30.01S WCI  -3
WAUTOMA        CLOUDY     9  -2  61 NW7       30.03R WCI  -2
WISC RAPIDS    CLOUDY     4  -4  69 NW12      30.03R WCI -12
CAMP DOUGLAS   PTCLDY    -6  -8  92 NW6       30.06R WCI -18
$$

WIZ011>013-019>022-031-037>040-048>050-101500-
NORTHEAST WISCONSIN

CITY           SKY/WX    TMP DP  RH WIND       PRES   REMARKS
ANTIGO         CLOUDY     4  -5  66 N16G23    29.95R WCI -15
SHAWANO        CLOUDY    10  -4  53 N7        30.01R WCI   0
OCONTO         CLEAR      7  -6  56 N12G18    30.00R WCI  -9
STURGEON BAY   CLEAR      7  -6  56 NW14G21   29.98R WCI -10
GREEN BAY      CLEAR      4  -5  66 NW6       30.00R WCI  -7
MANITOWOC      CLEAR      8  -3  61 NW14      29.99R WCI  -8
APPLETON       PTCLDY     7  -8  51 NW9       29.97R WCI  -7
CLINTONVILLE   CLOUDY    10  -4  52 NW9       30.01R WCI  -2
OSHKOSH        PTCLDY     8  -5  55 NW12      30.00R WCI  -7
$$

WIZ032>034-041-042-053>061-101500-
SOUTHWEST WISCONSIN

CITY           SKY/WX    TMP DP  RH WIND       PRES   REMARKS
LA CROSSE      PTCLDY     1  -7  68 CALM      30.11S
SPARTA         PTCLDY   -12 -16  81 E5        30.09S WCI -24
VIROQUA        PTCLDY    -2  -8  76 NW6       30.02F WCI -14
BOSCOBEL       PTCLDY    -3  -8  79 CALM      30.11R
PRAIRIE DU CHI CLOUDY     4  -6  64 NW5       30.11S WCI  -5
PLATTEVILLE    CLOUDY     3  -4  72 NW7       30.06R WCI  -9
$$

WIZ056-057-062-063-064-067-068-101500-
SOUTH CENTRAL WISCONSIN

CITY           SKY/WX    TMP DP  RH WIND       PRES   REMARKS
REEDSBURG      PTCLDY     0  -6  74 NW7       30.05S WCI -13
BARABOO/DELLS  PTCLDY     1  -6  73 W3        30.04R
LONE ROCK      CLOUDY     3  -6  66 NW9       30.09R WCI -12
MINERAL POINT  PTCLDY     3  -4  72 NW6       30.03R WCI  -8
MADISON        PTCLDY     4  -4  69 NW9       30.04R WCI -10
MIDDLETON      CLEAR      4  -3  71 W7        30.05R WCI  -8
WATERTOWN      CLOUDY     8   1  72 NW13      30.00R WCI  -8
MONROE         CLEAR      5  -2  72 NW12      30.01R WCI -11
JANESVILLE     PTCLDY     9   0  66 NW10        N/A  WCI  -6
$$

WIZ051-052-058>065-066-070>072-101500-
SOUTHEAST WISCONSIN

CITY           SKY/WX    TMP DP  RH WIND       PRES   REMARKS
MILWAUKEE      PTCLDY    10  -1  61 NW10G20   29.99R WCI  -4
WAUKESHA       MOCLDY     9   0  66 NW17      29.99R WCI -10
MILWAUKEE/TIMM CLEAR      9  -2  61 NW12      30.00R WCI  -6
RACINE         CLEAR      9  -1  64 NW7       30.01R WCI  -2
BURLINGTON     PTCLDY     9   0  68 NW14      29.99S WCI  -7
KENOSHA        CLEAR      9   0  67 NW10      29.99R WCI  -5
FOND DU LAC    CLOUDY     9  -2  61 N8        30.01R WCI  -3
SHEBOYGAN      PTCLDY     7  -5  57 NW12      29.98R WCI  -8
WEST BEND      PTCLDY     9  -4  56 CALM      29.98R
JUNEAU         CLOUDY     9  -1  66 NW7G16    30.01R WCI  -3
$$

LSZ147-162-101500-
LAKE SUPERIOR

STATION/POSITION TIME  TEMP    WIND        PRES    WAVE
                       AIR SEA DIR/SP/G            HT/PER
                 (UTC) (F)     (DEG/KT/KT) (MB)    (FT/S)
DEVILS ISLAND    1400    4     350/ 12/ 15 1021.7S
PORT WING        1340    5      10/ 10/ 14 1020.0S
SAXON HARBOR     1340    7                 1018.6R
$$

LMZ867-665-643>646-101500-
LAKE MICHIGAN

STATION/POSITION TIME  TEMP    WIND        PRES    WAVE
                       AIR SEA DIR/SP/G            HT/PER
                 (UTC) (F)     (DEG/KT/KT) (MB)    (FT/S)
CHAMBERS ISLAND  1300    7     310/ 15/ 25 1014.2R
ALGOMA LAKESHORE 1311          340/ 14/ 19   N/A
KEWAUNEE LAKESHO 1300    6     320/  9/ 15 1013.6R
SHEBOYGAN LAKESH 1400    9     320/ 15/ 18 1017.1R
PORT WASHINGTON  1300    9     320/  7/ 11 1015.9
MILWAUKEE LAKESH 1410   11     330/  9/ 14   N/A
KENOSHA   LAKESH 1400   10     300/ 10/ 14 1015.9R
$$

TC  - TEMPERATURE IN CELSIUS
VSB - VISIBILITY IN STATUTE MILES
WCI - WIND CHILL INDEX
HX  - HEAT INDEX




USA.gov is the U.S. government's official web portal to all federal, state and local government web resources and services.